When you browse on this site, cookies collect data to enhance your experience and personalize the content and advertising you see.
Visit our Privacy Policy to learn more. By continuing to use the site, you agree to this use of cookies and data.

Meteo pe oră la Dziechciniec

Astăzi, 25 Septembrie, Vineri

Timp Temperatura Precipitaţii Vânt Presiune Umiditate
00:00 +17°C° 0 mm 2 m/s 745 mmHg 81%
01:00 +17°C° 0 mm 2 m/s 744 mmHg 82%
02:00 +16°C° 0 mm 2 m/s 744 mmHg 83%
03:00 +16°C° 0 mm 2 m/s 744 mmHg 83%
04:00 +16°C° 0 mm 3 m/s 743 mmHg 83%
05:00 +16°C° 0 mm 3 m/s 743 mmHg 81%
06:00 +17°C° 0 mm 4 m/s 743 mmHg 79%
07:00 +17°C° 0 mm 4 m/s 742 mmHg 77%
08:00 +19°C° 0 mm 5 m/s 742 mmHg 70%
09:00 +21°C° 0 mm 6 m/s 742 mmHg 63%
10:00 +22°C° 0 mm 6 m/s 741 mmHg 56%
11:00 +23°C° 0 mm 7 m/s 741 mmHg 53%
12:00 +24°C° 0 mm 7 m/s 740 mmHg 50%
13:00 +26°C° 0 mm 7 m/s 740 mmHg 47%
14:00 +26°C° 0 mm 7 m/s 739 mmHg 48%
15:00 +26°C° 0 mm 6 m/s 739 mmHg 50%
16:00 +24°C° 0 mm 6 m/s 739 mmHg 52%
17:00 +23°C° 0.1 mm 6 m/s 739 mmHg 54%
18:00 +22°C° 0.1 mm 5 m/s 739 mmHg 57%
19:00 +21°C° 0.1 mm 5 m/s 739 mmHg 60%
20:00 +21°C° 0.2 mm 5 m/s 739 mmHg 64%
21:00 +20°C° 0.2 mm 4 m/s 738 mmHg 69%
22:00 +19°C° 0.2 mm 4 m/s 738 mmHg 73%
23:00 +19°C° 0.2 mm 3 m/s 738 mmHg 76%

Mâine, 26 Septembrie, Sâmbătă

Timp Temperatura Precipitaţii Vânt Presiune Umiditate
00:00 +19°C° 0.2 mm 3 m/s 738 mmHg 79%
01:00 +18°C° 0.2 mm 2 m/s 738 mmHg 82%
02:00 +18°C° 0 mm 3 m/s 737 mmHg 81%
03:00 +18°C° 0 mm 4 m/s 737 mmHg 81%
04:00 +18°C° 0 mm 4 m/s 736 mmHg 80%
05:00 +17°C° 0 mm 5 m/s 736 mmHg 77%
06:00 +17°C° 0 mm 5 m/s 736 mmHg 74%
07:00 +19°C° 0 mm 6 m/s 735 mmHg 71%
08:00 +20°C° 0 mm 6 m/s 736 mmHg 66%
09:00 +21°C° 0 mm 6 m/s 736 mmHg 62%
10:00 +21°C° 0 mm 7 m/s 736 mmHg 57%
11:00 +21°C° 0.1 mm 6 m/s 736 mmHg 62%
12:00 +20°C° 0.1 mm 6 m/s 736 mmHg 66%
13:00 +20°C° 0.1 mm 5 m/s 736 mmHg 71%
14:00 +19°C° 0.4 mm 4 m/s 737 mmHg 76%
15:00 +19°C° 0.4 mm 4 m/s 737 mmHg 81%
16:00 +18°C° 0.4 mm 3 m/s 737 mmHg 86%
17:00 +18°C° 2 mm 2 m/s 737 mmHg 88%
18:00 +17°C° 2 mm 2 m/s 737 mmHg 90%
19:00 +16°C° 2 mm 2 m/s 737 mmHg 92%
20:00 +16°C° 2.4 mm 2 m/s 738 mmHg 93%
21:00 +16°C° 2.4 mm 3 m/s 738 mmHg 93%
22:00 +16°C° 2.4 mm 3 m/s 738 mmHg 94%
23:00 +14°C° 2.7 mm 3 m/s 738 mmHg 94%

Poimâine, 27 Septembrie, Duminică

Timp Temperatura Precipitaţii Vânt Presiune Umiditate
00:00 +14°C° 2.7 mm 4 m/s 737 mmHg 94%
01:00 +13°C° 2.7 mm 4 m/s 737 mmHg 93%
02:00 +13°C° 1.1 mm 5 m/s 737 mmHg 93%
03:00 +12°C° 1.1 mm 5 m/s 737 mmHg 92%
04:00 +12°C° 1.1 mm 5 m/s 737 mmHg 92%
05:00 +10°C° 2.2 mm 5 m/s 737 mmHg 92%
06:00 +10°C° 2.2 mm 5 m/s 737 mmHg 92%
07:00 +9°C° 2.2 mm 5 m/s 737 mmHg 92%
08:00 +9°C° 2.7 mm 6 m/s 737 mmHg 92%
09:00 +9°C° 2.7 mm 6 m/s 738 mmHg 92%
10:00 +8°C° 2.7 mm 7 m/s 738 mmHg 92%
11:00 +8°C° 0.8 mm 7 m/s 739 mmHg 90%
12:00 +8°C° 0.8 mm 6 m/s 739 mmHg 88%
13:00 +8°C° 0.8 mm 6 m/s 740 mmHg 86%
14:00 +9°C° 0.4 mm 5 m/s 740 mmHg 86%
15:00 +10°C° 0.4 mm 4 m/s 741 mmHg 85%
16:00 +10°C° 0.4 mm 2 m/s 742 mmHg 85%
17:00 +10°C° 0.1 mm 2 m/s 742 mmHg 84%
18:00 +10°C° 0.1 mm 2 m/s 743 mmHg 84%
19:00 +10°C° 0.1 mm 2 m/s 744 mmHg 84%
20:00 +10°C° 0 mm 2 m/s 745 mmHg 84%
21:00 +10°C° 0 mm 3 m/s 745 mmHg 84%
22:00 +10°C° 0 mm 3 m/s 746 mmHg 84%
23:00 +9°C° 0 mm 3 m/s 746 mmHg 85%

28 Septembrie, Luni

Timp Temperatura Precipitaţii Vânt Presiune Umiditate
00:00 +9°C° 0 mm 3 m/s 746 mmHg 87%
01:00 +9°C° 0 mm 2 m/s 747 mmHg 88%
02:00 +8°C° 0 mm 2 m/s 747 mmHg 89%
03:00 +8°C° 0 mm 2 m/s 747 mmHg 89%
04:00 +8°C° 0 mm 2 m/s 747 mmHg 89%
05:00 +8°C° 0 mm 2 m/s 748 mmHg 86%
06:00 +9°C° 0 mm 2 m/s 748 mmHg 84%
07:00 +9°C° 0 mm 2 m/s 748 mmHg 81%
08:00 +12°C° 0 mm 2 m/s 748 mmHg 75%
09:00 +14°C° 0 mm 2 m/s 748 mmHg 68%
10:00 +15°C° 0 mm 2 m/s 749 mmHg 62%
11:00 +16°C° 0 mm 2 m/s 748 mmHg 58%
12:00 +17°C° 0 mm 3 m/s 748 mmHg 54%
13:00 +18°C° 0 mm 3 m/s 748 mmHg 50%
14:00 +17°C° 0 mm 3 m/s 748 mmHg 53%
15:00 +17°C° 0 mm 2 m/s 748 mmHg 56%
16:00 +16°C° 0 mm 2 m/s 748 mmHg 60%
17:00 +14°C° 0 mm 3 m/s 748 mmHg 67%
18:00 +13°C° 0 mm 3 m/s 748 mmHg 73%
19:00 +11°C° 0 mm 3 m/s 748 mmHg 80%
20:00 +11°C° 0.3 mm 3 m/s 748 mmHg 83%
21:00 +11°C° 0.3 mm 3 m/s 748 mmHg 86%
22:00 +11°C° 0.3 mm 3 m/s 748 mmHg 89%
23:00 +11°C° 0.5 mm 3 m/s 747 mmHg 90%

29 Septembrie, Marţi

Timp Temperatura Precipitaţii Vânt Presiune Umiditate
00:00 +11°C° 0.5 mm 3 m/s 747 mmHg 90%
01:00 +11°C° 0.5 mm 3 m/s 747 mmHg 90%
02:00 +12°C° 0.1 mm 2 m/s 746 mmHg 89%
03:00 +12°C° 0.1 mm 2 m/s 746 mmHg 88%
04:00 +11°C° 0.1 mm 1 m/s 746 mmHg 87%
05:00 +11°C° 0.3 mm 1 m/s 746 mmHg 88%
06:00 +11°C° 0.3 mm 1 m/s 746 mmHg 88%
07:00 +12°C° 0.3 mm 1 m/s 747 mmHg 88%
08:00 +12°C° 0.3 mm 1 m/s 747 mmHg 88%
09:00 +12°C° 0.3 mm 1 m/s 747 mmHg 88%
10:00 +12°C° 0.3 mm 1 m/s 747 mmHg 87%
11:00 +13°C° 0 mm 1 m/s 747 mmHg 82%
12:00 +14°C° 0 mm 1 m/s 748 mmHg 76%
13:00 +15°C° 0 mm 1 m/s 748 mmHg 71%
14:00 +15°C° 0.1 mm 1 m/s 748 mmHg 71%
15:00 +15°C° 0.1 mm 1 m/s 748 mmHg 71%
16:00 +15°C° 0.1 mm 1 m/s 749 mmHg 72%
17:00 +14°C° 0 mm 1 m/s 749 mmHg 76%
18:00 +13°C° 0 mm 1 m/s 749 mmHg 81%
19:00 +12°C° 0 mm 1 m/s 750 mmHg 86%
20:00 +11°C° 0 mm 1 m/s 750 mmHg 88%
21:00 +10°C° 0 mm 2 m/s 750 mmHg 89%
22:00 +10°C° 0 mm 2 m/s 750 mmHg 90%
23:00 +10°C° 0 mm 2 m/s 750 mmHg 92%

30 Septembrie, Miercuri

Timp Temperatura Precipitaţii Vânt Presiune Umiditate
00:00 +9°C° 0 mm 2 m/s 750 mmHg 93%
01:00 +9°C° 0 mm 3 m/s 751 mmHg 94%
02:00 +9°C° 0 mm 3 m/s 751 mmHg 94%
03:00 +9°C° 0 mm 3 m/s 751 mmHg 94%
04:00 +9°C° 0 mm 3 m/s 751 mmHg 95%
05:00 +9°C° 0 mm 3 m/s 751 mmHg 93%
06:00 +9°C° 0 mm 3 m/s 751 mmHg 92%
07:00 +10°C° 0 mm 3 m/s 751 mmHg 91%
08:00 +11°C° 0 mm 3 m/s 751 mmHg 83%
09:00 +13°C° 0 mm 3 m/s 751 mmHg 76%
10:00 +14°C° 0 mm 3 m/s 751 mmHg 69%
11:00 +16°C° 0 mm 3 m/s 750 mmHg 65%
12:00 +17°C° 0 mm 3 m/s 750 mmHg 61%
13:00 +18°C° 0 mm 4 m/s 750 mmHg 57%
14:00 +17°C° 0 mm 3 m/s 749 mmHg 59%
15:00 +17°C° 0 mm 3 m/s 749 mmHg 62%
16:00 +17°C° 0 mm 3 m/s 749 mmHg 64%
17:00 +14°C° 0 mm 3 m/s 749 mmHg 68%
18:00 +13°C° 0 mm 3 m/s 749 mmHg 73%
19:00 +13°C° 0 mm 2 m/s 749 mmHg 77%
20:00 +12°C° 0 mm 2 m/s 749 mmHg 79%
21:00 +12°C° 0 mm 2 m/s 749 mmHg 80%
22:00 +10°C° 0 mm 2 m/s 749 mmHg 82%
23:00 +10°C° 0 mm 2 m/s 748 mmHg 83%
Arată mai mult